Terug naar catalogus

USA 56

ActiefMilitairPO
NORAD 20560·PAYLOAD·🇺🇸 United States

Gelanceerd Apr 11, 1990 vanaf Vandenberg Space Force Base

Loading…

Volgende Passages (komende 24 uur)

TLE

VersSource: Space-Track

Epoch: Sep 14, 2026, 11:12 UTC

1 20560U 90031A   26257.46682952  .00000646  00000-0  85363-4 0  9995
2 20560  89.8560 259.4776 0058727 311.2754  48.3418 14.77791008125889

Volg USA 56 in realtime met AllMySat

Download on the App Store